Prince George Airport
CYXS : now visible

Airfield :











YOU CAN JOIN US ON...

 
LOGIN :

Register | Disclaimer

   EN    FR    IT 

 









Legend :    VFR   Marginal VFR   IFR   Intensive IFR   Very Intensive IFR
Visi :
Ceiling :
>= 8 km
>= 3000ft
5 to 8 km
1000 to 3000 ft
1500m to 5 km
500 to 1000 ft
800 to 1500m
200 to 500 ft
< 800m
< 200 ft
Symbols :   Thunderstorms  Fog  Heavy snow  Heavy precipitations  Wind > 20 kt






- Airport Elevation : 2267 ft
- IATA code : YXS


CYXS - Prince George

CURRENT METAR :
  • 121700Z AUTO 30005KT 9SM OVC055 11/03 A3009 RMK SLP207

EXPIRED METARs :
  • 121600Z AUTO 27005KT 9SM OVC055 11/04 A3009 RMK SLP203
  • 121500Z AUTO 23006KT 9SM BKN071 BKN081 10/03 A3008 RMK SLP200

TAF TAF CYXS
Valid from the 12 at 13:00 until the 13 at 01:00 UTC


121242Z 1213/1301 VRB03KT P6SM BKN080 OVC200
FM121600 VRB03KT P6SM SCT040 BKN080 OVC120 RMK FCST BASED ON AUTO OBS. NXT FCST BY 121900Z
CZVR FIR / North America



MET'MAP, your aeronautical weather chart ! - Copyright ORBIFLY December 2007 - Disclaimer

ORBIFLY MET'MAP TEAM :

Programming & Development : Alexandra Zaïnal
Concept & original design : Baudouin d'Aumeries
Assistance for programming : Marc-Olivier Méhu
Technical & hardware support : Manuel Goepfert

Contact : metmap@orbifly.com




SOURCES & CREDITS :

   NOAA       Earth
Advisory